Powrót do katalogu

COSMOS 2251 DEB

AktywnyLEO
NORAD 35288·DEBRIS·🇷🇺 Russia

Wystrzelony Jun 16, 1993 z Plesetsk Cosmodrome

Loading…

Następne Przeloty (najbliższe 24 godziny)

TLE

ŚwieżeSource: Space-Track

Epoka: Sep 14, 2026, 13:45 UTC

1 35288U 93036AJS 26257.57353182  .00004520  00000-0  77986-3 0  9994
2 35288  73.9486 199.9770 0035376   2.2511 357.8811 14.68371572919233

Śledź COSMOS 2251 DEB w czasie rzeczywistym z AllMySat

Download on the App Store